EW9318 Weather Reports


time (UTC)temp
C
wind
direction
speed
KPH
gust
KPH
rain 1hr
cm
rain 24hr
cm
rain mn
cm
humidity
%
barometer
mb
20260901203516 27 237 6.4 19.3 0.00 0.08 0.00 77 1012.7
20260901203015 27 245 11.3 19.3 0.00 0.08 0.00 78 1012.6
20260901202516 27 244 11.3 19.3 0.00 0.08 0.00 76 1012.6
20260901202037 27 261 11.3 22.5 0.00 0.08 0.00 75 1012.7
20260901201515 27 254 16.1 22.5 0.00 0.08 0.00 74 1012.7
20260901201015 28 230 12.9 19.3 0.00 0.08 0.00 75 1012.7
20260901200517 28 234 11.3 20.9 0.00 0.08 0.00 76 1012.7
20260901200015 27 249 11.3 20.9 0.00 0.08 0.00 76 1012.6
20260901195515 27 253 8.0 19.3 0.00 0.08 0.00 75 1012.5
20260901195056 27 250 11.3 19.3 0.00 0.08 0.00 75 1012.6
20260901194516 27 214 8.0 19.3 0.00 0.08 0.00 79 1012.6
20260901194015 27 233 11.3 22.5 0.00 0.08 0.00 77 1012.6
20260901193517 27 200 11.3 22.5 0.00 0.08 0.00 77 1012.5
20260901193015 28 213 9.7 19.3 0.00 0.08 0.00 77 1012.6
20260901192517 28 194 8.0 16.1 0.00 0.08 0.00 78 1012.7
20260901192015 28 192 8.0 14.5 0.00 0.08 0.00 78 1012.7
20260901191516 27 212 4.8 17.7 0.00 0.08 0.00 81 1012.7
20260901191015 27 225 9.7 17.7 0.00 0.08 0.00 81 1012.9
20260901190536 27 227 9.7 16.1 0.00 0.08 0.00 79 1012.9
20260901190016 27 234 6.4 12.9 0.00 0.08 0.00 79 1012.9
20260901185535 27 244 6.4 16.1 0.00 0.08 0.00 79 1013.1
20260901185015 27 241 9.7 16.1 0.00 0.08 0.00 78 1013.3
20260901184516 27 226 6.4 12.9 0.00 0.08 0.00 79 1013.2
20260901184035 27 235 6.4 12.9 0.00 0.08 0.00 78 1013.1
20260901183517 27 213 4.8 17.7 0.00 0.08 0.00 79 1012.9
20260901183015 27 226 8.0 17.7 0.00 0.08 0.00 78 1012.8
20260901182516 27 206 6.4 14.5 0.00 0.08 0.00 79 1012.8
20260901182016 27 222 4.8 19.3 0.00 0.08 0.00 78 1012.7
20260901181517 28 226 8.0 19.3 0.00 0.08 0.00 78 1012.9
20260901181035 28 239 9.7 17.7 0.00 0.08 0.00 77 1013.0
20260901180515 28 219 11.3 22.5 0.00 0.08 0.00 76 1013.3
20260901180015 28 237 14.5 25.7 0.00 0.08 0.00 76 1013.3
20260901175516 28 233 14.5 25.7 0.00 0.08 0.00 76 1013.6
20260901175015 28 246 12.9 25.7 0.00 0.08 0.00 75 1013.6
20260901174516 28 243 16.1 24.1 0.00 0.08 0.00 76 1013.6
20260901174017 28 238 14.5 22.5 0.00 0.08 0.00 76 1013.6
20260901173516 28 245 11.3 22.5 0.00 0.08 0.00 77 1013.4
20260901173015 28 236 9.7 16.1 0.00 0.08 0.00 77 1013.3
20260901172536 28 224 9.7 16.1 0.00 0.08 0.00 78 1013.2
20260901172016 28 241 9.7 14.5 0.00 0.08 0.00 78 1013.3
20260901171515 28 268 8.0 17.7 0.00 0.08 0.00 78 1013.3
20260901171015 28 258 12.9 17.7 0.00 0.08 0.00 78 1013.5
20260901170515 27 252 8.0 19.3 0.00 0.08 0.00 79 1013.4
20260901170015 27 247 12.9 20.9 0.00 0.08 0.00 78 1013.4
20260901165535 27 247 12.9 20.9 0.00 0.08 0.00 78 1013.4
20260901165015 27 252 11.3 17.7 0.00 0.08 0.00 78 1013.4
20260901164515 28 226 11.3 17.7 0.00 0.08 0.00 77 1013.4
20260901164015 27 235 8.0 16.1 0.00 0.08 0.00 80 1013.3
20260901163515 27 236 8.0 17.7 0.00 0.08 0.00 79 1013.3
20260901163015 27 253 9.7 17.7 0.00 0.08 0.00 80 1013.3
20260901162515 27 252 6.4 16.1 0.00 0.08 0.00 79 1013.3
20260901162055 27 237 8.0 17.7 0.00 0.08 0.00 80 1013.3
20260901161535 27 277 8.0 17.7 0.00 0.08 0.00 79 1013.4
20260901161015 27 247 8.0 17.7 0.00 0.08 0.00 80 1013.4
20260901160515 27 268 9.7 17.7 0.00 0.08 0.00 80 1013.3
20260901160015 27 262 11.3 16.1 0.00 0.08 0.00 79 1013.4
20260901155535 27 233 9.7 16.1 0.00 0.08 0.00 81 1013.4
20260901155015 27 232 8.0 16.1 0.00 0.08 0.00 80 1013.4
20260901154517 27 232 8.0 17.7 0.00 0.08 0.00 80 1013.4
20260901154019 27 230 9.7 19.3 0.00 0.08 0.00 79 1013.3
20260901153518 27 230 11.3 19.3 0.00 0.08 0.00 80 1013.2
20260901153017 27 238 6.4 14.5 0.00 0.08 0.00 82 1013.2
20260901152517 26 237 8.0 17.7 0.00 0.08 0.00 82 1013.3
20260901152037 26 231 11.3 19.3 0.00 0.08 0.00 81 1013.4
20260901151517 26 235 11.3 19.3 0.00 0.08 0.00 82 1013.4
20260901151017 26 249 11.3 17.7 0.00 0.08 0.00 81 1013.4
20260901150517 26 238 9.7 17.7 0.00 0.08 0.00 81 1013.3
20260901150017 26 243 11.3 17.7 0.00 0.08 0.00 81 1013.3
20260901145517 26 253 8.0 20.9 0.00 0.08 0.00 81 1013.3
20260901145017 26 232 12.9 20.9 0.00 0.08 0.00 81 1013.3
20260901144537 26 234 11.3 17.7 0.00 0.08 0.00 82 1013.2
20260901144037 26 234 9.7 16.1 0.00 0.08 0.00 82 1013.2
20260901143518 26 236 9.7 19.3 0.00 0.08 0.00 83 1013.2
20260901143017 26 228 9.7 19.3 0.00 0.08 0.00 83 1013.2
20260901142557 26 236 11.3 19.3 0.00 0.08 0.00 83 1013.3
20260901142017 25 244 9.7 19.3 0.00 0.08 0.00 83 1013.3
20260901141517 25 242 9.7 17.7 0.00 0.08 0.00 83 1013.3
20260901141017 25 254 9.7 16.1 0.00 0.08 0.00 83 1013.3
20260901140517 25 245 8.0 14.5 0.00 0.10 0.00 84 1013.2
20260901140037 25 251 6.4 14.5 0.00 0.10 0.00 84 1013.2
20260901135518 25 246 6.4 11.3 0.00 0.10 0.00 85 1013.2
20260901135017 25 247 4.8 11.3 0.00 0.10 0.00 85 1013.1
20260901134517 24 247 6.4 16.1 0.00 0.10 0.00 86 1013.2
20260901134017 24 249 8.0 16.1 0.00 0.10 0.00 87 1013.2
20260901133517 23 259 6.4 16.1 0.00 0.10 0.00 88 1013.2
20260901133017 23 237 3.2 11.3 0.00 0.10 0.00 90 1013.1
20260901132518 23 244 4.8 8.0 0.00 0.10 0.00 91 1013.2
20260901132017 23 242 1.6 8.0 0.00 0.10 0.00 92 1013.2
20260901131517 22 230 1.6 8.0 0.00 0.10 0.00 93 1013.3
20260901131017 22 210 1.6 9.7 0.00 0.10 0.00 94 1013.3
20260901130517 22 216 3.2 9.7 0.00 0.10 0.00 95 1013.2
20260901130016 22 214 1.6 8.0 0.00 0.10 0.00 95 1013.1
20260901125516 22 202 0.0 4.8 0.00 0.10 0.00 95 1013.1
20260901125016 21 218 1.6 6.4 0.00 0.10 0.00 96 1013.1
20260901124517 21 202 1.6 6.4 0.00 0.10 0.00 96 1013.1
20260901124016 21 197 1.6 6.4 0.00 0.10 0.00 96 1013.1
20260901123518 21 210 1.6 6.4 0.00 0.10 0.00 96 1013.2
20260901123017 21 196 0.0 3.2 0.00 0.10 0.00 96 1013.2
20260901122517 21 204 0.0 3.2 0.00 0.10 0.00 96 1013.1
20260901122018 20 200 1.6 3.2 0.00 0.10 0.00 96 1013.2
20260901121518 20 167 0.0 4.8 0.00 0.10 0.00 96 1013.0
20260901121017 20 169 0.0 4.8 0.00 0.10 0.00 96 1013.1
20260901120537 20 174 0.0 4.8 0.00 0.10 0.00 96 1013.0
20260901120037 19 204 0.0 3.2 0.00 0.10 0.00 96 1012.9
20260901115516 19 360 0.0 3.2 0.00 0.10 0.00 96 1012.9
20260901115038 19 321 0.0 3.2 0.00 0.10 0.00 96 1012.9
20260901114516 18 226 0.0 3.2 0.00 0.10 0.00 95 1012.7
20260901114018 18 360 0.0 1.6 0.00 0.10 0.00 95 1012.6
20260901113516 18 360 0.0 3.2 0.00 0.10 0.00 95 1012.3
20260901113016 18 360 0.0 3.2 0.00 0.10 0.00 95 1012.3
20260901112518 18 360 0.0 3.2 0.00 0.10 0.00 95 1012.3
20260901112016 18 360 0.0 3.2 0.00 0.10 0.00 95 1012.3
20260901111518 18 0.0 1.6 0.00 0.10 0.00 95 1012.3
20260901111016 18 360 0.0 1.6 0.00 0.10 0.00 95 1012.5
20260901110517 18 0.0 0.0 0.00 0.10 0.00 95 1012.5
20260901110036 18 0.0 0.0 0.00 0.10 0.00 95 1012.4
20260901105518 18 0.0 0.0 0.00 0.10 0.00 95 1012.5
20260901105036 18 0.0 0.0 0.00 0.10 0.00 95 1012.5
20260901104516 18 0.0 0.0 0.00 0.10 0.00 95 1012.5
20260901104157 18 0.0 0.0 0.00 0.10 0.00 95 1012.4
20260901103516 19 0.0 0.0 0.00 0.10 0.00 95 1012.4
20260901103036 19 0.0 0.0 0.00 0.10 0.00 95 1012.3
20260901102516 19 0.0 0.0 0.00 0.10 0.00 95 1012.4
20260901102017 19 0.0 0.0 0.00 0.10 0.00 95 1012.4
20260901101518 19 0.0 0.0 0.00 0.10 0.00 95 1012.4
20260901101016 19 0.0 0.0 0.00 0.10 0.00 95 1012.4
20260901100516 19 0.0 0.0 0.00 0.10 0.00 95 1012.3
20260901100017 19 0.0 0.0 0.00 0.10 0.00 95 1012.3
20260901095538 19 0.0 1.6 0.00 0.10 0.00 95 1012.2
20260901095016 19 78 0.0 1.6 0.00 0.10 0.00 95 1012.2
20260901094517 19 0.0 0.0 0.00 0.10 0.00 95 1012.2
20260901094016 19 0.0 0.0 0.00 0.10 0.00 95 1012.1
20260901093516 19 0.0 0.0 0.00 0.10 0.00 95 1012.2
20260901093159 19 0.0 0.0 0.00 0.10 0.00 95 1012.3
20260901092516 20 0.0 0.0 0.00 0.10 0.00 95 1012.3
20260901092036 20 0.0 0.0 0.00 0.10 0.00 95 1012.3
20260901091516 20 0.0 0.0 0.00 0.10 0.00 95 1012.2
20260901091016 20 0.0 0.0 0.00 0.10 0.00 95 1012.3
20260901090516 20 0.0 0.0 0.00 0.10 0.00 95 1012.2
20260901090016 20 0.0 0.0 0.00 0.10 0.00 95 1012.2
20260901085536 20 0.0 0.0 0.00 0.10 0.00 95 1012.1
20260901085016 20 0.0 0.0 0.00 0.10 0.00 95 1012.1
20260901084517 20 0.0 0.0 0.00 0.10 0.00 95 1012.1
20260901084016 20 0.0 0.0 0.00 0.10 0.00 95 1012.2
20260901083536 20 0.0 0.0 0.00 0.10 0.00 94 1012.1
20260901083016 20 0.0 0.0 0.00 0.10 0.00 94 1012.2
20260901082516 20 0.0 0.0 0.00 0.10 0.00 94 1012.2
20260901082016 20 0.0 0.0 0.00 0.10 0.00 95 1012.3
20260901081516 20 0.0 0.0 0.00 0.10 0.00 95 1012.3
20260901081016 20 0.0 0.0 0.00 0.10 0.00 95 1012.3
20260901080516 20 0.0 0.0 0.00 0.10 0.00 94 1012.3
20260901080016 20 0.0 0.0 0.00 0.10 0.00 94 1012.4
20260901075516 20 0.0 0.0 0.00 0.10 0.00 94 1012.4
20260901075038 20 0.0 0.0 0.00 0.10 0.00 94 1012.4
20260901074516 20 0.0 0.0 0.00 0.10 0.00 94 1012.3
20260901074016 20 0.0 0.0 0.00 0.10 0.00 94 1012.4
20260901073516 20 0.0 0.0 0.00 0.10 0.00 94 1012.4
20260901073036 20 0.0 0.0 0.00 0.10 0.00 94 1012.4
20260901072516 20 0.0 0.0 0.00 0.10 0.00 94 1012.4
20260901072016 20 0.0 1.6 0.00 0.10 0.00 94 1012.4
20260901071516 20 125 0.0 3.2 0.00 0.10 0.00 94 1012.4
20260901071016 20 123 1.6 4.8 0.00 0.10 0.00 94 1012.3
20260901070516 20 103 1.6 4.8 0.00 0.10 0.00 94 1012.4
20260901070016 20 94 0.0 1.6 0.00 0.10 0.00 94 1012.4
20260901065516 20 0.0 0.0 0.00 0.10 0.00 94 1012.5
20260901065016 20 0.0 0.0 0.00 0.10 0.00 94 1012.5
20260901064517 20 0.0 0.0 0.00 0.10 0.00 94 1012.4
20260901064016 20 0.0 0.0 0.00 0.10 0.00 94 1012.3
20260901063536 20 0.0 0.0 0.00 0.10 0.00 94 1012.4
20260901063017 21 0.0 0.0 0.00 0.10 0.00 94 1012.4
20260901062516 20 0.0 0.0 0.00 0.10 0.00 93 1012.4
20260901062016 20 0.0 0.0 0.00 0.10 0.00 93 1012.3
20260901061516 21 0.0 0.0 0.00 0.10 0.00 93 1012.3
20260901061037 21 0.0 0.0 0.00 0.10 0.00 93 1012.3
20260901060516 21 0.0 0.0 0.00 0.10 0.00 93 1012.5
20260901060016 21 0.0 0.0 0.00 0.10 0.00 93 1012.4
20260901055516 21 0.0 0.0 0.00 0.10 0.00 93 1012.5
20260901055017 21 0.0 0.0 0.00 0.10 0.00 93 1012.5
20260901054516 21 0.0 0.0 0.00 0.10 0.00 93 1012.5
20260901054036 21 0.0 0.0 0.00 0.10 0.00 93 1012.5
20260901053517 21 0.0 0.0 0.00 0.10 0.00 93 1012.5
20260901053016 21 0.0 0.0 0.00 0.10 0.00 93 1012.6
20260901052516 21 0.0 0.0 0.00 0.10 0.00 93 1012.5
20260901052017 21 0.0 0.0 0.00 0.10 0.00 93 1012.5
20260901051517 21 0.0 0.0 0.00 0.10 0.00 93 1012.6
20260901051016 21 0.0 0.0 0.00 0.10 0.00 92 1012.5
20260901050516 21 0.0 0.0 0.00 0.10 0.00 93 1012.5
20260901050017 21 0.0 3.2 0.00 0.10 0.00 92 1012.4
20260901045516 21 100 0.0 3.2 0.00 0.10 0.00 92 1012.4
20260901045036 21 99 1.6 3.2 0.00 0.10 0.00 92 1012.3
20260901044516 21 94 0.0 3.2 0.00 0.10 0.00 92 1012.3
20260901044017 22 90 0.0 3.2 0.00 0.10 0.00 92 1012.3
20260901043516 22 350 0.0 1.6 0.00 0.10 0.00 92 1012.3
20260901043016 22 351 0.0 1.6 0.00 0.10 0.00 92 1012.3
20260901042517 22 351 0.0 1.6 0.00 0.10 0.00 92 1012.2
20260901042016 22 351 0.0 3.2 0.00 0.10 0.00 92 1012.3
20260901041517 22 348 1.6 3.2 0.00 0.10 0.00 92 1012.3
20260901041037 22 333 0.0 3.2 0.00 0.10 0.00 93 1012.4
20260901040516 22 345 0.0 4.8 0.00 0.10 0.00 93 1012.2
20260901040015 22 355 1.6 4.8 0.00 0.10 0.10 93 1012.2
20260901035516 22 357 1.6 3.2 0.00 0.10 0.10 93 1012.1
20260901035016 22 336 0.0 3.2 0.00 0.10 0.10 93 1012.0
20260901034516 22 331 0.0 4.8 0.00 0.10 0.10 93 1012.0
20260901034017 22 15 1.6 4.8 0.00 0.10 0.10 93 1011.9
20260901033536 22 113 1.6 6.4 0.00 0.10 0.10 93 1011.8
20260901033017 22 142 1.6 6.4 0.00 0.10 0.10 93 1011.7
20260901032516 22 156 0.0 6.4 0.00 0.10 0.10 93 1011.8
20260901032016 22 146 1.6 8.0 0.00 0.10 0.10 93 1011.9
20260901031537 22 153 3.2 8.0 0.00 0.10 0.10 93 1011.9
20260901031016 22 146 3.2 6.4 0.00 0.10 0.10 93 1012.0
20260901030516 22 141 0.0 1.6 0.00 0.10 0.10 93 1012.1
20260901030016 22 0.0 0.0 0.00 0.10 0.10 93 1012.1
20260901025516 22 0.0 1.6 0.00 0.10 0.10 92 1012.1
20260901025016 22 141 0.0 4.8 0.00 0.10 0.10 92 1012.2
20260901024536 22 133 1.6 4.8 0.00 0.10 0.10 92 1012.1
20260901024016 22 0.0 0.0 0.00 0.10 0.10 92 1012.2
20260901023516 22 0.0 0.0 0.00 0.10 0.10 92 1012.4
20260901023036 22 0.0 0.0 0.00 0.10 0.10 92 1012.5
20260901022516 22 0.0 0.0 0.00 0.10 0.10 92 1012.5
20260901022016 22 0.0 3.2 0.00 0.10 0.10 92 1012.6
20260901021516 22 13 0.0 4.8 0.00 0.10 0.10 91 1012.7
20260901021036 22 38 1.6 4.8 0.00 0.10 0.10 91 1012.8
20260901020516 22 0.0 0.0 0.00 0.10 0.10 91 1012.7
20260901020016 22 0.0 1.6 0.00 0.10 0.10 91 1012.6
20260901015556 22 127 0.0 3.2 0.00 0.10 0.10 91 1012.6
20260901015016 22 137 1.6 6.4 0.00 0.10 0.10 91 1012.4
20260901014516 22 135 3.2 6.4 0.00 0.10 0.10 90 1012.3
20260901014016 22 127 1.6 6.4 0.00 0.10 0.10 89 1012.3
20260901013537 23 0.0 0.0 0.00 0.10 0.10 89 1012.4
20260901013016 23 0.0 0.0 0.00 0.10 0.10 89 1012.4
20260901012517 23 0.0 3.2 0.00 0.10 0.10 88 1012.3
20260901012017 23 136 0.0 4.8 0.00 0.10 0.10 87 1012.3
20260901011536 23 144 1.6 4.8 0.00 0.10 0.10 87 1012.2
20260901011016 23 168 0.0 1.6 0.00 0.10 0.10 86 1012.2
20260901010517 23 0.0 1.6 0.00 0.10 0.10 85 1012.3
20260901010016 24 314 0.0 1.6 0.00 0.10 0.10 85 1012.2
20260901005516 24 281 0.0 1.6 0.00 0.10 0.10 84 1012.1
20260901005016 24 281 0.0 1.6 0.00 0.10 0.10 84 1012.1
20260901004516 25 0.0 0.0 0.00 0.10 0.10 83 1012.0
20260901004016 25 0.0 0.0 0.00 0.10 0.10 83 1011.9
20260901003516 25 0.0 0.0 0.00 0.10 0.10 83 1012.0
20260901003016 25 0.0 1.6 0.00 0.10 0.10 82 1012.0
20260901002618 25 281 0.0 1.6 0.00 0.10 0.10 82 1011.9
20260901002016 25 281 0.0 1.6 0.00 0.10 0.10 82 1011.9
20260901001516 25 286 0.0 4.8 0.00 0.10 0.10 82 1011.9
20260901001036 25 222 1.6 6.4 0.00 0.10 0.10 82 1011.8
20260901000536 25 229 0.0 6.4 0.00 0.10 0.10 82 1011.8
20260901000016 25 211 3.2 8.0 0.00 0.10 0.10 82 1011.8
20260831235516 25 209 3.2 8.0 0.00 0.10 0.10 81 1011.7
20260831235016 25 224 1.6 6.4 0.00 0.10 0.10 81 1011.6
20260831234515 25 251 3.2 8.0 0.00 0.10 0.10 81 1011.6
20260831234016 25 253 3.2 8.0 0.00 0.10 0.10 81 1011.7
20260831233515 25 264 1.6 4.8 0.00 0.10 0.10 81 1011.6
20260831233016 25 232 0.0 6.4 0.00 0.10 0.10 81 1011.5
20260831232516 25 222 1.6 6.4 0.03 0.10 0.10 81 1011.5
20260831232016 25 188 0.0 3.2 0.03 0.10 0.10 81 1011.5
20260831231517 25 188 0.0 9.7 0.03 0.10 0.10 81 1011.3
20260831231016 25 173 1.6 11.3 0.03 0.10 0.10 81 1011.4
20260831230535 25 166 1.6 11.3 0.03 0.10 0.10 81 1011.4
20260831230017 25 177 4.8 11.3 0.03 0.10 0.10 80 1011.5
20260831225515 25 184 3.2 12.9 0.03 0.10 0.10 80 1011.7
20260831225015 25 176 4.8 12.9 0.03 0.10 0.10 79 1011.6
20260831224537 25 162 3.2 14.5 0.03 0.10 0.10 79 1011.6
20260831224016 25 157 6.4 16.1 0.03 0.10 0.10 78 1011.4
20260831223516 25 156 6.4 16.1 0.03 0.10 0.10 78 1011.3
20260831223016 25 144 4.8 12.9 0.05 0.10 0.10 78 1011.3
20260831222517 25 159 4.8 12.9 0.03 0.08 0.08 78 1011.5
20260831222016 25 165 4.8 9.7 0.03 0.08 0.08 78 1011.6
20260831221515 25 152 4.8 8.0 0.03 0.08 0.08 77 1011.4
20260831221037 26 151 3.2 14.5 0.03 0.08 0.08 77 1011.6
20260831220515 26 169 4.8 14.5 0.03 0.08 0.08 77 1011.6
20260831220017 26 166 3.2 17.7 0.03 0.08 0.08 77 1011.7
20260831215536 26 181 6.4 17.7 0.05 0.08 0.08 77 1011.9
20260831215015 26 188 6.4 16.1 0.05 0.08 0.08 77 1012.0
20260831214516 26 184 6.4 14.5 0.05 0.08 0.08 76 1012.0
20260831214036 26 186 4.8 12.9 0.05 0.08 0.08 78 1012.1
20260831213515 26 180 3.2 9.7 0.05 0.08 0.08 77 1012.0
20260831213015 26 176 4.8 12.9 0.03 0.05 0.05 78 1012.0
20260831212516 26 174 3.2 12.9 0.03 0.05 0.05 78 1011.9
20260831212015 26 187 4.8 9.7 0.03 0.05 0.05 78 1011.9
20260831211515 26 165 1.6 8.0 0.03 0.05 0.05 79 1011.9
20260831211017 26 139 3.2 8.0 0.03 0.05 0.05 80 1011.8
20260831210515 26 134 4.8 8.0 0.03 0.05 0.05 80 1012.0
20260831210015 26 141 3.2 8.0 0.03 0.05 0.05 78 1012.1
20260831205515 27 147 1.6 3.2 0.00 0.03 0.03 78 1012.3
20260831205015 27 116 0.0 4.8 0.00 0.03 0.03 73 1012.4
20260831204515 27 80 1.6 9.7 0.00 0.03 0.03 71 1012.4
20260831204015 27 187 3.2 14.5 0.00 0.03 0.03 67 1012.4